segment_id,date_local,uptime,ped_lft,ped_rgt,ped_total,bike_lft,bike_rgt,bike_total,car_lft,car_rgt,car_total,heavy_lft,heavy_rgt,heavy_total,v85,car_speed0,car_speed10,car_speed20,car_speed30,car_speed40,car_speed50,car_speed60,car_speed70
100024661,2020-02-01 00:00,1.0,,,,53,60,113,,,,,,,
100024661,2020-02-01 01:00,1.0,,,,44,53,97,,,,,,,
100024661,2020-02-01 02:00,1.0,,,,39,29,68,,,,,,,
100024661,2020-02-01 03:00,1.0,,,,14,18,32,,,,,,,
100024661,2020-02-01 04:00,1.0,,,,10,7,17,,,,,,,
100024661,2020-02-01 05:00,1.0,,,,15,13,28,,,,,,,
100024661,2020-02-01 06:00,1.0,,,,14,10,24,,,,,,,
100024661,2020-02-01 07:00,1.0,,,,18,22,40,,,,,,,
100024661,2020-02-01 08:00,1.0,,,,34,26,60,,,,,,,
100024661,2020-02-01 09:00,1.0,,,,53,46,99,,,,,,,
100024661,2020-02-01 10:00,1.0,,,,79,75,154,,,,,,,
100024661,2020-02-01 11:00,1.0,,,,91,59,150,,,,,,,
100024661,2020-02-01 12:00,1.0,,,,55,66,121,,,,,,,
100024661,2020-02-01 13:00,1.0,,,,39,67,106,,,,,,,
100024661,2020-02-01 14:00,1.0,,,,57,62,119,,,,,,,
100024661,2020-02-01 15:00,1.0,,,,63,58,121,,,,,,,
100024661,2020-02-01 16:00,1.0,,,,57,57,114,,,,,,,
100024661,2020-02-01 17:00,1.0,,,,53,70,123,,,,,,,
100024661,2020-02-01 18:00,1.0,,,,76,58,134,,,,,,,
100024661,2020-02-01 19:00,1.0,,,,69,79,148,,,,,,,
100024661,2020-02-01 20:00,1.0,,,,44,69,113,,,,,,,
100024661,2020-02-01 21:00,1.0,,,,50,43,93,,,,,,,
100024661,2020-02-01 22:00,1.0,,,,32,55,87,,,,,,,
100024661,2020-02-01 23:00,1.0,,,,39,43,82,,,,,,,
100024661,2020-02-02 00:00,1.0,,,,39,24,63,,,,,,,
100024661,2020-02-02 01:00,1.0,,,,31,24,55,,,,,,,
100024661,2020-02-02 02:00,1.0,,,,15,12,27,,,,,,,
100024661,2020-02-02 03:00,1.0,,,,18,13,31,,,,,,,
100024661,2020-02-02 04:00,1.0,,,,12,7,19,,,,,,,
100024661,2020-02-02 05:00,1.0,,,,11,14,25,,,,,,,
100024661,2020-02-02 06:00,1.0,,,,8,9,17,,,,,,,
100024661,2020-02-02 07:00,1.0,,,,14,9,23,,,,,,,
100024661,2020-02-02 08:00,1.0,,,,15,10,25,,,,,,,
100024661,2020-02-02 09:00,1.0,,,,35,31,66,,,,,,,
100024661,2020-02-02 10:00,1.0,,,,51,28,79,,,,,,,
100024661,2020-02-02 11:00,1.0,,,,39,24,63,,,,,,,
100024661,2020-02-02 12:00,1.0,,,,47,36,83,,,,,,,
100024661,2020-02-02 13:00,1.0,,,,44,53,97,,,,,,,
100024661,2020-02-02 14:00,1.0,,,,47,49,96,,,,,,,
100024661,2020-02-02 15:00,1.0,,,,36,50,86,,,,,,,
100024661,2020-02-02 16:00,1.0,,,,50,64,114,,,,,,,
100024661,2020-02-02 17:00,1.0,,,,53,56,109,,,,,,,
100024661,2020-02-02 18:00,1.0,,,,56,49,105,,,,,,,
100024661,2020-02-02 19:00,1.0,,,,50,56,106,,,,,,,
100024661,2020-02-02 20:00,1.0,,,,36,42,78,,,,,,,
100024661,2020-02-02 21:00,1.0,,,,35,47,82,,,,,,,
100024661,2020-02-02 22:00,1.0,,,,31,27,58,,,,,,,
100024661,2020-02-02 23:00,1.0,,,,20,31,51,,,,,,,
100024661,2020-02-03 00:00,1.0,,,,12,10,22,,,,,,,
100024661,2020-02-03 01:00,1.0,,,,12,9,21,,,,,,,
100024661,2020-02-03 02:00,1.0,,,,10,6,16,,,,,,,
100024661,2020-02-03 03:00,1.0,,,,5,4,9,,,,,,,
100024661,2020-02-03 04:00,1.0,,,,2,12,14,,,,,,,
100024661,2020-02-03 05:00,1.0,,,,8,15,23,,,,,,,
100024661,2020-02-03 06:00,1.0,,,,45,65,110,,,,,,,
100024661,2020-02-03 07:00,1.0,,,,59,168,227,,,,,,,
100024661,2020-02-03 08:00,1.0,,,,232,403,635,,,,,,,
100024661,2020-02-03 09:00,1.0,,,,259,367,626,,,,,,,
100024661,2020-02-03 10:00,1.0,,,,108,112,220,,,,,,,
100024661,2020-02-03 11:00,1.0,,,,102,94,196,,,,,,,
100024661,2020-02-03 12:00,1.0,,,,123,105,228,,,,,,,
100024661,2020-02-03 13:00,1.0,,,,108,120,228,,,,,,,
100024661,2020-02-03 14:00,1.0,,,,102,103,205,,,,,,,
100024661,2020-02-03 15:00,1.0,,,,145,104,249,,,,,,,
100024661,2020-02-03 16:00,1.0,,,,214,157,371,,,,,,,
100024661,2020-02-03 17:00,1.0,,,,301,163,464,,,,,,,
100024661,2020-02-03 18:00,1.0,,,,349,263,612,,,,,,,
100024661,2020-02-03 19:00,1.0,,,,222,199,421,,,,,,,
100024661,2020-02-03 20:00,1.0,,,,110,89,199,,,,,,,
100024661,2020-02-03 21:00,1.0,,,,90,80,170,,,,,,,
100024661,2020-02-03 22:00,1.0,,,,49,53,102,,,,,,,
100024661,2020-02-03 23:00,1.0,,,,29,37,66,,,,,,,
100024661,2020-02-04 00:00,1.0,,,,12,21,33,,,,,,,
100024661,2020-02-04 01:00,1.0,,,,13,9,22,,,,,,,
100024661,2020-02-04 02:00,1.0,,,,9,8,17,,,,,,,
100024661,2020-02-04 03:00,1.0,,,,10,3,13,,,,,,,
100024661,2020-02-04 04:00,1.0,,,,1,8,9,,,,,,,
100024661,2020-02-04 05:00,1.0,,,,15,24,39,,,,,,,
100024661,2020-02-04 06:00,1.0,,,,30,66,96,,,,,,,
100024661,2020-02-04 07:00,1.0,,,,90,204,294,,,,,,,
100024661,2020-02-04 08:00,1.0,,,,266,512,778,,,,,,,
100024661,2020-02-04 09:00,1.0,,,,318,468,786,,,,,,,
100024661,2020-02-04 10:00,1.0,,,,146,169,315,,,,,,,
100024661,2020-02-04 11:00,1.0,,,,119,127,246,,,,,,,
100024661,2020-02-04 12:00,1.0,,,,139,116,255,,,,,,,
100024661,2020-02-04 13:00,1.0,,,,117,126,243,,,,,,,
100024661,2020-02-04 14:00,1.0,,,,132,123,255,,,,,,,
100024661,2020-02-04 15:00,1.0,,,,197,176,373,,,,,,,
100024661,2020-02-04 16:00,1.0,,,,288,140,428,,,,,,,
100024661,2020-02-04 17:00,1.0,,,,387,287,674,,,,,,,
100024661,2020-02-04 18:00,1.0,,,,440,396,836,,,,,,,
100024661,2020-02-04 19:00,1.0,,,,245,205,450,,,,,,,
100024661,2020-02-04 20:00,1.0,,,,140,123,263,,,,,,,
100024661,2020-02-04 21:00,1.0,,,,86,90,176,,,,,,,
100024661,2020-02-04 22:00,1.0,,,,77,66,143,,,,,,,
100024661,2020-02-04 23:00,1.0,,,,49,34,83,,,,,,,
100024661,2020-02-05 00:00,1.0,,,,19,22,41,,,,,,,
100024661,2020-02-05 01:00,1.0,,,,7,12,19,,,,,,,
100024661,2020-02-05 02:00,1.0,,,,5,4,9,,,,,,,
100024661,2020-02-05 03:00,1.0,,,,4,5,9,,,,,,,
100024661,2020-02-05 04:00,1.0,,,,7,10,17,,,,,,,
100024661,2020-02-05 05:00,1.0,,,,11,10,21,,,,,,,
100024661,2020-02-05 06:00,1.0,,,,31,70,101,,,,,,,
100024661,2020-02-05 07:00,1.0,,,,98,215,313,,,,,,,
100024661,2020-02-05 08:00,1.0,,,,292,538,830,,,,,,,
100024661,2020-02-05 09:00,1.0,,,,360,441,801,,,,,,,
100024661,2020-02-05 10:00,1.0,,,,156,196,352,,,,,,,
100024661,2020-02-05 11:00,1.0,,,,131,138,269,,,,,,,
100024661,2020-02-05 12:00,1.0,,,,149,135,284,,,,,,,
100024661,2020-02-05 13:00,1.0,,,,156,134,290,,,,,,,
100024661,2020-02-05 14:00,1.0,,,,179,171,350,,,,,,,
100024661,2020-02-05 15:00,1.0,,,,278,178,456,,,,,,,
100024661,2020-02-05 16:00,1.0,,,,300,210,510,,,,,,,
100024661,2020-02-05 17:00,1.0,,,,392,308,700,,,,,,,
100024661,2020-02-05 18:00,1.0,,,,479,349,828,,,,,,,
100024661,2020-02-05 19:00,1.0,,,,301,311,612,,,,,,,
100024661,2020-02-05 20:00,1.0,,,,149,148,297,,,,,,,
100024661,2020-02-05 21:00,1.0,,,,124,110,234,,,,,,,
100024661,2020-02-05 22:00,1.0,,,,91,94,185,,,,,,,
100024661,2020-02-05 23:00,1.0,,,,50,60,110,,,,,,,
100024661,2020-02-06 00:00,1.0,,,,26,41,67,,,,,,,
100024661,2020-02-06 01:00,1.0,,,,25,16,41,,,,,,,
100024661,2020-02-06 02:00,1.0,,,,7,9,16,,,,,,,
100024661,2020-02-06 03:00,1.0,,,,6,3,9,,,,,,,
100024661,2020-02-06 04:00,1.0,,,,6,10,16,,,,,,,
100024661,2020-02-06 05:00,1.0,,,,12,25,37,,,,,,,
100024661,2020-02-06 06:00,1.0,,,,34,72,106,,,,,,,
100024661,2020-02-06 07:00,1.0,,,,92,201,293,,,,,,,
100024661,2020-02-06 08:00,1.0,,,,282,499,781,,,,,,,
100024661,2020-02-06 09:00,1.0,,,,332,474,806,,,,,,,
100024661,2020-02-06 10:00,1.0,,,,144,166,310,,,,,,,
100024661,2020-02-06 11:00,1.0,,,,115,127,242,,,,,,,
100024661,2020-02-06 12:00,1.0,,,,125,124,249,,,,,,,
100024661,2020-02-06 13:00,1.0,,,,111,151,262,,,,,,,
100024661,2020-02-06 14:00,1.0,,,,148,134,282,,,,,,,
100024661,2020-02-06 15:00,1.0,,,,263,163,426,,,,,,,
100024661,2020-02-06 16:00,1.0,,,,274,189,463,,,,,,,
100024661,2020-02-06 17:00,1.0,,,,415,266,681,,,,,,,
100024661,2020-02-06 18:00,1.0,,,,446,389,835,,,,,,,
100024661,2020-02-06 19:00,1.0,,,,260,269,529,,,,,,,
100024661,2020-02-06 20:00,1.0,,,,157,137,294,,,,,,,
100024661,2020-02-06 21:00,1.0,,,,104,124,228,,,,,,,
100024661,2020-02-06 22:00,1.0,,,,100,80,180,,,,,,,
100024661,2020-02-06 23:00,1.0,,,,66,60,126,,,,,,,
100024661,2020-02-07 00:00,1.0,,,,47,37,84,,,,,,,
100024661,2020-02-07 01:00,1.0,,,,24,22,46,,,,,,,
100024661,2020-02-07 02:00,1.0,,,,15,7,22,,,,,,,
100024661,2020-02-07 03:00,1.0,,,,11,4,15,,,,,,,
100024661,2020-02-07 04:00,1.0,,,,9,13,22,,,,,,,
100024661,2020-02-07 05:00,1.0,,,,16,19,35,,,,,,,
100024661,2020-02-07 06:00,1.0,,,,38,60,98,,,,,,,
100024661,2020-02-07 07:00,1.0,,,,84,180,264,,,,,,,
100024661,2020-02-07 08:00,1.0,,,,235,413,648,,,,,,,
100024661,2020-02-07 09:00,1.0,,,,285,395,680,,,,,,,
100024661,2020-02-07 10:00,1.0,,,,130,180,310,,,,,,,
100024661,2020-02-07 11:00,1.0,,,,114,87,201,,,,,,,
100024661,2020-02-07 12:00,1.0,,,,160,133,293,,,,,,,
100024661,2020-02-07 13:00,1.0,,,,139,147,286,,,,,,,
100024661,2020-02-07 14:00,1.0,,,,187,162,349,,,,,,,
100024661,2020-02-07 15:00,1.0,,,,251,194,445,,,,,,,
100024661,2020-02-07 16:00,1.0,,,,262,189,451,,,,,,,
100024661,2020-02-07 17:00,1.0,,,,310,250,560,,,,,,,
100024661,2020-02-07 18:00,1.0,,,,353,305,658,,,,,,,
100024661,2020-02-07 19:00,1.0,,,,197,208,405,,,,,,,
100024661,2020-02-07 20:00,1.0,,,,114,143,257,,,,,,,
100024661,2020-02-07 21:00,1.0,,,,85,110,195,,,,,,,
100024661,2020-02-07 22:00,1.0,,,,85,74,159,,,,,,,
100024661,2020-02-07 23:00,1.0,,,,52,83,135,,,,,,,
100024661,2020-02-08 00:00,1.0,,,,40,40,80,,,,,,,
100024661,2020-02-08 01:00,1.0,,,,42,44,86,,,,,,,
100024661,2020-02-08 02:00,1.0,,,,21,16,37,,,,,,,
100024661,2020-02-08 03:00,1.0,,,,21,10,31,,,,,,,
100024661,2020-02-08 04:00,1.0,,,,17,7,24,,,,,,,
100024661,2020-02-08 05:00,1.0,,,,11,8,19,,,,,,,
100024661,2020-02-08 06:00,1.0,,,,13,7,20,,,,,,,
100024661,2020-02-08 07:00,1.0,,,,15,6,21,,,,,,,
100024661,2020-02-08 08:00,1.0,,,,43,33,76,,,,,,,
100024661,2020-02-08 09:00,1.0,,,,74,39,113,,,,,,,
100024661,2020-02-08 10:00,1.0,,,,87,90,177,,,,,,,
100024661,2020-02-08 11:00,1.0,,,,115,131,246,,,,,,,
100024661,2020-02-08 12:00,1.0,,,,137,108,245,,,,,,,
100024661,2020-02-08 13:00,1.0,,,,146,175,321,,,,,,,
100024661,2020-02-08 14:00,1.0,,,,178,178,356,,,,,,,
100024661,2020-02-08 15:00,1.0,,,,160,214,374,,,,,,,
100024661,2020-02-08 16:00,1.0,,,,168,170,338,,,,,,,
100024661,2020-02-08 17:00,1.0,,,,154,201,355,,,,,,,
100024661,2020-02-08 18:00,1.0,,,,122,161,283,,,,,,,
100024661,2020-02-08 19:00,1.0,,,,115,144,259,,,,,,,
100024661,2020-02-08 20:00,1.0,,,,62,103,165,,,,,,,
100024661,2020-02-08 21:00,1.0,,,,49,90,139,,,,,,,
100024661,2020-02-08 22:00,1.0,,,,42,70,112,,,,,,,
100024661,2020-02-08 23:00,1.0,,,,57,73,130,,,,,,,
100024661,2020-02-09 00:00,1.0,,,,41,43,84,,,,,,,
100024661,2020-02-09 01:00,1.0,,,,43,25,68,,,,,,,
100024661,2020-02-09 02:00,1.0,,,,25,23,48,,,,,,,
100024661,2020-02-09 03:00,1.0,,,,17,12,29,,,,,,,
100024661,2020-02-09 04:00,1.0,,,,14,6,20,,,,,,,
100024661,2020-02-09 05:00,1.0,,,,17,9,26,,,,,,,
100024661,2020-02-09 06:00,1.0,,,,12,5,17,,,,,,,
100024661,2020-02-09 07:00,1.0,,,,17,3,20,,,,,,,
100024661,2020-02-09 08:00,1.0,,,,21,12,33,,,,,,,
100024661,2020-02-09 09:00,1.0,,,,29,30,59,,,,,,,
100024661,2020-02-09 10:00,1.0,,,,58,69,127,,,,,,,
100024661,2020-02-09 11:00,1.0,,,,77,86,163,,,,,,,
100024661,2020-02-09 12:00,1.0,,,,74,98,172,,,,,,,
100024661,2020-02-09 13:00,1.0,,,,86,98,184,,,,,,,
100024661,2020-02-09 14:00,1.0,,,,86,118,204,,,,,,,
100024661,2020-02-09 15:00,1.0,,,,108,97,205,,,,,,,
100024661,2020-02-09 16:00,1.0,,,,92,83,175,,,,,,,
100024661,2020-02-09 17:00,1.0,,,,73,101,174,,,,,,,
100024661,2020-02-09 18:00,1.0,,,,62,89,151,,,,,,,
100024661,2020-02-09 19:00,1.0,,,,41,52,93,,,,,,,
100024661,2020-02-09 20:00,1.0,,,,31,29,60,,,,,,,
100024661,2020-02-09 21:00,1.0,,,,24,30,54,,,,,,,
100024661,2020-02-09 22:00,1.0,,,,35,28,63,,,,,,,
100024661,2020-02-09 23:00,1.0,,,,25,12,37,,,,,,,
100024661,2020-02-10 00:00,1.0,,,,17,5,22,,,,,,,
100024661,2020-02-10 01:00,1.0,,,,2,7,9,,,,,,,
100024661,2020-02-10 02:00,1.0,,,,5,2,7,,,,,,,
100024661,2020-02-10 03:00,1.0,,,,1,1,2,,,,,,,
100024661,2020-02-10 04:00,1.0,,,,6,5,11,,,,,,,
100024661,2020-02-10 05:00,1.0,,,,6,12,18,,,,,,,
100024661,2020-02-10 06:00,1.0,,,,39,42,81,,,,,,,
100024661,2020-02-10 07:00,1.0,,,,70,159,229,,,,,,,
100024661,2020-02-10 08:00,1.0,,,,216,481,697,,,,,,,
100024661,2020-02-10 09:00,1.0,,,,186,279,465,,,,,,,
100024661,2020-02-10 10:00,1.0,,,,106,110,216,,,,,,,
100024661,2020-02-10 11:00,1.0,,,,63,59,122,,,,,,,
100024661,2020-02-10 12:00,1.0,,,,81,59,140,,,,,,,
100024661,2020-02-10 13:00,1.0,,,,77,71,148,,,,,,,
100024661,2020-02-10 14:00,1.0,,,,104,80,184,,,,,,,
100024661,2020-02-10 15:00,1.0,,,,182,131,313,,,,,,,
100024661,2020-02-10 16:00,1.0,,,,204,136,340,,,,,,,
100024661,2020-02-10 17:00,1.0,,,,268,165,433,,,,,,,
100024661,2020-02-10 18:00,1.0,,,,353,234,587,,,,,,,
100024661,2020-02-10 19:00,1.0,,,,185,161,346,,,,,,,
100024661,2020-02-10 20:00,1.0,,,,97,90,187,,,,,,,
100024661,2020-02-10 21:00,1.0,,,,68,90,158,,,,,,,
100024661,2020-02-10 22:00,1.0,,,,59,75,134,,,,,,,
100024661,2020-02-10 23:00,1.0,,,,39,38,77,,,,,,,
100024661,2020-02-11 00:00,1.0,,,,10,25,35,,,,,,,
100024661,2020-02-11 01:00,1.0,,,,5,8,13,,,,,,,
100024661,2020-02-11 02:00,1.0,,,,3,4,7,,,,,,,
100024661,2020-02-11 03:00,1.0,,,,3,4,7,,,,,,,
100024661,2020-02-11 04:00,1.0,,,,2,6,8,,,,,,,
100024661,2020-02-11 05:00,1.0,,,,15,15,30,,,,,,,
100024661,2020-02-11 06:00,1.0,,,,37,70,107,,,,,,,
100024661,2020-02-11 07:00,1.0,,,,110,203,313,,,,,,,
100024661,2020-02-11 08:00,1.0,,,,258,505,763,,,,,,,
100024661,2020-02-11 09:00,1.0,,,,286,420,706,,,,,,,
100024661,2020-02-11 10:00,1.0,,,,119,165,284,,,,,,,
100024661,2020-02-11 11:00,1.0,,,,118,118,236,,,,,,,
100024661,2020-02-11 12:00,1.0,,,,134,117,251,,,,,,,
100024661,2020-02-11 13:00,1.0,,,,132,146,278,,,,,,,
100024661,2020-02-11 14:00,1.0,,,,140,122,262,,,,,,,
100024661,2020-02-11 15:00,1.0,,,,229,170,399,,,,,,,
100024661,2020-02-11 16:00,1.0,,,,245,149,394,,,,,,,
100024661,2020-02-11 17:00,1.0,,,,340,192,532,,,,,,,
100024661,2020-02-11 18:00,1.0,,,,416,342,758,,,,,,,
100024661,2020-02-11 19:00,1.0,,,,242,209,451,,,,,,,
100024661,2020-02-11 20:00,1.0,,,,128,137,265,,,,,,,
100024661,2020-02-11 21:00,1.0,,,,85,98,183,,,,,,,
100024661,2020-02-11 22:00,1.0,,,,82,80,162,,,,,,,
100024661,2020-02-11 23:00,1.0,,,,48,36,84,,,,,,,
100024661,2020-02-12 00:00,1.0,,,,23,24,47,,,,,,,
100024661,2020-02-12 01:00,1.0,,,,10,13,23,,,,,,,
100024661,2020-02-12 02:00,1.0,,,,2,6,8,,,,,,,
100024661,2020-02-12 03:00,1.0,,,,4,2,6,,,,,,,
100024661,2020-02-12 04:00,1.0,,,,4,7,11,,,,,,,
100024661,2020-02-12 05:00,1.0,,,,14,24,38,,,,,,,
100024661,2020-02-12 06:00,1.0,,,,41,77,118,,,,,,,
100024661,2020-02-12 07:00,1.0,,,,96,214,310,,,,,,,
100024661,2020-02-12 08:00,1.0,,,,307,549,856,,,,,,,
100024661,2020-02-12 09:00,1.0,,,,301,448,749,,,,,,,
100024661,2020-02-12 10:00,1.0,,,,126,174,300,,,,,,,
100024661,2020-02-12 11:00,1.0,,,,113,104,217,,,,,,,
100024661,2020-02-12 12:00,1.0,,,,121,112,233,,,,,,,
100024661,2020-02-12 13:00,1.0,,,,136,121,257,,,,,,,
100024661,2020-02-12 14:00,1.0,,,,132,150,282,,,,,,,
100024661,2020-02-12 15:00,1.0,,,,221,158,379,,,,,,,
100024661,2020-02-12 16:00,1.0,,,,290,194,484,,,,,,,
100024661,2020-02-12 17:00,1.0,,,,394,248,642,,,,,,,
100024661,2020-02-12 18:00,1.0,,,,442,354,796,,,,,,,
100024661,2020-02-12 19:00,1.0,,,,251,245,496,,,,,,,
100024661,2020-02-12 20:00,1.0,,,,141,146,287,,,,,,,
100024661,2020-02-12 21:00,1.0,,,,111,106,217,,,,,,,
100024661,2020-02-12 22:00,1.0,,,,100,82,182,,,,,,,
100024661,2020-02-12 23:00,1.0,,,,61,49,110,,,,,,,
100024661,2020-02-13 00:00,1.0,,,,22,28,50,,,,,,,
100024661,2020-02-13 01:00,1.0,,,,18,7,25,,,,,,,
100024661,2020-02-13 02:00,1.0,,,,7,9,16,,,,,,,
100024661,2020-02-13 03:00,1.0,,,,3,1,4,,,,,,,
100024661,2020-02-13 04:00,1.0,,,,5,4,9,,,,,,,
100024661,2020-02-13 05:00,1.0,,,,14,26,40,,,,,,,
100024661,2020-02-13 06:00,1.0,,,,43,77,120,,,,,,,
100024661,2020-02-13 07:00,1.0,,,,109,221,330,,,,,,,
100024661,2020-02-13 08:00,1.0,,,,315,618,933,,,,,,,
100024661,2020-02-13 09:00,1.0,,,,353,462,815,,,,,,,
100024661,2020-02-13 10:00,1.0,,,,147,185,332,,,,,,,
100024661,2020-02-13 11:00,1.0,,,,145,139,284,,,,,,,
100024661,2020-02-13 12:00,1.0,,,,159,136,295,,,,,,,
100024661,2020-02-13 13:00,1.0,,,,162,144,306,,,,,,,
100024661,2020-02-13 14:00,1.0,,,,176,172,348,,,,,,,
100024661,2020-02-13 15:00,1.0,,,,277,220,497,,,,,,,
100024661,2020-02-13 16:00,1.0,,,,317,188,505,,,,,,,
100024661,2020-02-13 17:00,1.0,,,,399,262,661,,,,,,,
100024661,2020-02-13 18:00,1.0,,,,412,350,762,,,,,,,
100024661,2020-02-13 19:00,1.0,,,,260,225,485,,,,,,,
100024661,2020-02-13 20:00,1.0,,,,159,126,285,,,,,,,
100024661,2020-02-13 21:00,1.0,,,,94,112,206,,,,,,,
100024661,2020-02-13 22:00,1.0,,,,96,79,175,,,,,,,
100024661,2020-02-13 23:00,1.0,,,,57,49,106,,,,,,,
100024661,2020-02-14 00:00,1.0,,,,30,35,65,,,,,,,
100024661,2020-02-14 01:00,1.0,,,,21,12,33,,,,,,,
100024661,2020-02-14 02:00,1.0,,,,8,13,21,,,,,,,
100024661,2020-02-14 03:00,1.0,,,,7,3,10,,,,,,,
100024661,2020-02-14 04:00,1.0,,,,5,6,11,,,,,,,
100024661,2020-02-14 05:00,1.0,,,,9,18,27,,,,,,,
100024661,2020-02-14 06:00,1.0,,,,31,58,89,,,,,,,
100024661,2020-02-14 07:00,1.0,,,,100,226,326,,,,,,,
100024661,2020-02-14 08:00,1.0,,,,236,522,758,,,,,,,
100024661,2020-02-14 09:00,1.0,,,,291,402,693,,,,,,,
100024661,2020-02-14 10:00,1.0,,,,131,185,316,,,,,,,
100024661,2020-02-14 11:00,1.0,,,,135,129,264,,,,,,,
100024661,2020-02-14 12:00,1.0,,,,140,122,262,,,,,,,
100024661,2020-02-14 13:00,1.0,,,,157,137,294,,,,,,,
100024661,2020-02-14 14:00,1.0,,,,189,156,345,,,,,,,
100024661,2020-02-14 15:00,1.0,,,,283,205,488,,,,,,,
100024661,2020-02-14 16:00,1.0,,,,318,196,514,,,,,,,
100024661,2020-02-14 17:00,1.0,,,,343,261,604,,,,,,,
100024661,2020-02-14 18:00,1.0,,,,326,293,619,,,,,,,
100024661,2020-02-14 19:00,1.0,,,,209,236,445,,,,,,,
100024661,2020-02-14 20:00,1.0,,,,130,151,281,,,,,,,
100024661,2020-02-14 21:00,1.0,,,,92,110,202,,,,,,,
100024661,2020-02-14 22:00,1.0,,,,83,75,158,,,,,,,
100024661,2020-02-14 23:00,1.0,,,,66,54,120,,,,,,,
100024661,2020-02-15 00:00,1.0,,,,54,54,108,,,,,,,
100024661,2020-02-15 01:00,1.0,,,,44,32,76,,,,,,,
100024661,2020-02-15 02:00,1.0,,,,32,26,58,,,,,,,
100024661,2020-02-15 03:00,1.0,,,,8,17,25,,,,,,,
100024661,2020-02-15 04:00,1.0,,,,14,10,24,,,,,,,
100024661,2020-02-15 05:00,1.0,,,,8,6,14,,,,,,,
100024661,2020-02-15 06:00,1.0,,,,12,6,18,,,,,,,
100024661,2020-02-15 07:00,1.0,,,,18,19,37,,,,,,,
100024661,2020-02-15 08:00,1.0,,,,39,43,82,,,,,,,
100024661,2020-02-15 09:00,1.0,,,,87,77,164,,,,,,,
100024661,2020-02-15 10:00,1.0,,,,86,78,164,,,,,,,
100024661,2020-02-15 11:00,1.0,,,,101,109,210,,,,,,,
100024661,2020-02-15 12:00,1.0,,,,120,115,235,,,,,,,
100024661,2020-02-15 13:00,1.0,,,,150,170,320,,,,,,,
100024661,2020-02-15 14:00,1.0,,,,190,155,345,,,,,,,
100024661,2020-02-15 15:00,1.0,,,,163,185,348,,,,,,,
100024661,2020-02-15 16:00,1.0,,,,177,194,371,,,,,,,
100024661,2020-02-15 17:00,1.0,,,,157,171,328,,,,,,,
100024661,2020-02-15 18:00,1.0,,,,149,172,321,,,,,,,
100024661,2020-02-15 19:00,1.0,,,,114,137,251,,,,,,,
100024661,2020-02-15 20:00,1.0,,,,71,143,214,,,,,,,
100024661,2020-02-15 21:00,1.0,,,,71,94,165,,,,,,,
100024661,2020-02-15 22:00,1.0,,,,44,58,102,,,,,,,
100024661,2020-02-15 23:00,1.0,,,,61,75,136,,,,,,,
100024661,2020-02-16 00:00,1.0,,,,52,56,108,,,,,,,
100024661,2020-02-16 01:00,1.0,,,,49,48,97,,,,,,,
100024661,2020-02-16 02:00,1.0,,,,26,28,54,,,,,,,
100024661,2020-02-16 03:00,1.0,,,,37,20,57,,,,,,,
100024661,2020-02-16 04:00,1.0,,,,17,12,29,,,,,,,
100024661,2020-02-16 05:00,1.0,,,,20,8,28,,,,,,,
100024661,2020-02-16 06:00,1.0,,,,12,3,15,,,,,,,
100024661,2020-02-16 07:00,1.0,,,,16,7,23,,,,,,,
100024661,2020-02-16 08:00,1.0,,,,32,28,60,,,,,,,
100024661,2020-02-16 09:00,1.0,,,,30,46,76,,,,,,,
100024661,2020-02-16 10:00,1.0,,,,42,28,70,,,,,,,
100024661,2020-02-16 11:00,1.0,,,,46,34,80,,,,,,,
100024661,2020-02-16 12:00,1.0,,,,42,49,91,,,,,,,
100024661,2020-02-16 13:00,1.0,,,,77,58,135,,,,,,,
100024661,2020-02-16 14:00,1.0,,,,70,100,170,,,,,,,
100024661,2020-02-16 15:00,1.0,,,,86,94,180,,,,,,,
100024661,2020-02-16 16:00,1.0,,,,94,101,195,,,,,,,
100024661,2020-02-16 17:00,1.0,,,,107,114,221,,,,,,,
100024661,2020-02-16 18:00,1.0,,,,84,87,171,,,,,,,
100024661,2020-02-16 19:00,1.0,,,,71,82,153,,,,,,,
100024661,2020-02-16 20:00,1.0,,,,64,78,142,,,,,,,
100024661,2020-02-16 21:00,1.0,,,,58,57,115,,,,,,,
100024661,2020-02-16 22:00,1.0,,,,38,65,103,,,,,,,
100024661,2020-02-16 23:00,1.0,,,,29,37,66,,,,,,,
100024661,2020-02-17 00:00,1.0,,,,27,23,50,,,,,,,
100024661,2020-02-17 01:00,1.0,,,,9,12,21,,,,,,,
100024661,2020-02-17 02:00,1.0,,,,11,6,17,,,,,,,
100024661,2020-02-17 03:00,1.0,,,,4,4,8,,,,,,,
100024661,2020-02-17 04:00,1.0,,,,7,14,21,,,,,,,
100024661,2020-02-17 05:00,1.0,,,,15,16,31,,,,,,,
100024661,2020-02-17 06:00,1.0,,,,52,76,128,,,,,,,
100024661,2020-02-17 07:00,1.0,,,,131,266,397,,,,,,,
100024661,2020-02-17 08:00,1.0,,,,362,641,1003,,,,,,,
100024661,2020-02-17 09:00,1.0,,,,376,555,931,,,,,,,
100024661,2020-02-17 10:00,1.0,,,,163,219,382,,,,,,,
100024661,2020-02-17 11:00,1.0,,,,141,140,281,,,,,,,
100024661,2020-02-17 12:00,1.0,,,,139,149,288,,,,,,,
100024661,2020-02-17 13:00,1.0,,,,158,178,336,,,,,,,
100024661,2020-02-17 14:00,1.0,,,,195,145,340,,,,,,,
100024661,2020-02-17 15:00,1.0,,,,299,212,511,,,,,,,
100024661,2020-02-17 16:00,1.0,,,,350,240,590,,,,,,,
100024661,2020-02-17 17:00,1.0,,,,480,315,795,,,,,,,
100024661,2020-02-17 18:00,1.0,,,,526,428,954,,,,,,,
100024661,2020-02-17 19:00,1.0,,,,277,284,561,,,,,,,
100024661,2020-02-17 20:00,1.0,,,,169,148,317,,,,,,,
100024661,2020-02-17 21:00,1.0,,,,137,116,253,,,,,,,
100024661,2020-02-17 22:00,1.0,,,,77,95,172,,,,,,,
100024661,2020-02-17 23:00,1.0,,,,47,53,100,,,,,,,
100024661,2020-02-18 00:00,1.0,,,,31,29,60,,,,,,,
100024661,2020-02-18 01:00,1.0,,,,12,16,28,,,,,,,
100024661,2020-02-18 02:00,1.0,,,,5,6,11,,,,,,,
100024661,2020-02-18 03:00,1.0,,,,3,3,6,,,,,,,
100024661,2020-02-18 04:00,1.0,,,,7,6,13,,,,,,,
100024661,2020-02-18 05:00,1.0,,,,17,23,40,,,,,,,
100024661,2020-02-18 06:00,1.0,,,,46,91,137,,,,,,,
100024661,2020-02-18 07:00,1.0,,,,128,283,411,,,,,,,
100024661,2020-02-18 08:00,1.0,,,,387,721,1108,,,,,,,
100024661,2020-02-18 09:00,1.0,,,,290,449,739,,,,,,,
100024661,2020-02-18 10:00,1.0,,,,164,219,383,,,,,,,
100024661,2020-02-18 11:00,1.0,,,,125,113,238,,,,,,,
100024661,2020-02-18 12:00,1.0,,,,130,100,230,,,,,,,
100024661,2020-02-18 13:00,1.0,,,,133,149,282,,,,,,,
100024661,2020-02-18 14:00,1.0,,,,193,138,331,,,,,,,
100024661,2020-02-18 15:00,1.0,,,,296,214,510,,,,,,,
100024661,2020-02-18 16:00,1.0,,,,324,190,514,,,,,,,
100024661,2020-02-18 17:00,1.0,,,,435,264,699,,,,,,,
100024661,2020-02-18 18:00,1.0,,,,502,435,937,,,,,,,
100024661,2020-02-18 19:00,1.0,,,,285,262,547,,,,,,,
100024661,2020-02-18 20:00,1.0,,,,147,140,287,,,,,,,
100024661,2020-02-18 21:00,1.0,,,,109,150,259,,,,,,,
100024661,2020-02-18 22:00,1.0,,,,87,77,164,,,,,,,
100024661,2020-02-18 23:00,1.0,,,,74,62,136,,,,,,,
100024661,2020-02-19 00:00,1.0,,,,31,28,59,,,,,,,
100024661,2020-02-19 01:00,1.0,,,,15,13,28,,,,,,,
100024661,2020-02-19 02:00,1.0,,,,9,7,16,,,,,,,
100024661,2020-02-19 03:00,1.0,,,,4,0,4,,,,,,,
100024661,2020-02-19 04:00,1.0,,,,5,7,12,,,,,,,
100024661,2020-02-19 05:00,1.0,,,,16,24,40,,,,,,,
100024661,2020-02-19 06:00,1.0,,,,45,76,121,,,,,,,
100024661,2020-02-19 07:00,1.0,,,,110,271,381,,,,,,,
100024661,2020-02-19 08:00,1.0,,,,201,455,656,,,,,,,
100024661,2020-02-19 09:00,1.0,,,,235,315,550,,,,,,,
100024661,2020-02-19 10:00,1.0,,,,95,145,240,,,,,,,
100024661,2020-02-19 11:00,1.0,,,,101,86,187,,,,,,,
100024661,2020-02-19 12:00,1.0,,,,110,99,209,,,,,,,
100024661,2020-02-19 13:00,1.0,,,,111,105,216,,,,,,,
100024661,2020-02-19 14:00,1.0,,,,144,127,271,,,,,,,
100024661,2020-02-19 15:00,1.0,,,,250,182,432,,,,,,,
100024661,2020-02-19 16:00,1.0,,,,231,154,385,,,,,,,
100024661,2020-02-19 17:00,1.0,,,,366,194,560,,,,,,,
100024661,2020-02-19 18:00,1.0,,,,358,254,612,,,,,,,
100024661,2020-02-19 19:00,1.0,,,,203,209,412,,,,,,,
100024661,2020-02-19 20:00,1.0,,,,120,96,216,,,,,,,
100024661,2020-02-19 21:00,1.0,,,,74,78,152,,,,,,,